Location: Neu-Ulm
(48.3873°N, 10.0192°E)
Time: 19:14:00
(UTC+01:00)

ISS - Pass Details

Date: 17 November 2017
Orbit: 402 x 407 km, 51.6° (Epoch: 24 November)

Event Time Altitude Azimuth Distance (km) Brightness Sun altitude
Exits shadow 04:48:19 15° 135° (SE) 1,200 -1.0 -26.7°
Drops below altitude 10° 04:48:57 10° 132° (SE) 1,450 -0.5 -26.6°
Sets 04:51:03 0° 128° (SE) 2,306 0.8 -26.3°
